Regional Weather Roundup
Issued by NWS

Home | Current Version | Previous Version | Graphics & Text | Print | Product List | Glossary On
Versions: 1 2 3 4 5 6 7 8 9 10 11 12 13 14 15 16 17 18 19 20 21 22 23 24 25 26 27 28 29 30 31 32 33 34 35 36 37 38 39 40 41 42 43 44 45 46 47 48 49 50
000
ASUS43 KLOT 010406
RWRIL

ILLINOIS REGIONAL WEATHER ROUNDUP
NATIONAL WEATHER SERVICE CHICAGO/ROMEOVILLE IL
1000 PM CST SAT JAN 31 2015

NOTE: "FAIR" INDICATES FEW OR NO CLOUDS BELOW 12,000 FEET WITH NO
SIGNIFICANT WEATHER AND/OR OBSTRUCTIONS TO VISIBILITY.

* THESE STATIONS ARE NOT UNDER NWS QUALITY CONTROL. THEY ALSO MAY NOT
  REPORT WEATHER SUCH AS PRECIPITATION OR FOG.

ILZ001-002-007-009-015-016-024-010500-
NORTHWEST ILLINOIS

CITY           SKY/WX    TMP DP  RH WIND       PRES   REMARKS
MOLINE         LGT RAIN  33  31  92 SE3       30.09F FOG
STERLING*        N/A    N/A N/A N/A MISG        N/A
SAVANNA*       LGT SNOW  33  32  96 CALM      30.11S
$$

ILZ003-004-008-010-011-017-018-010500-
NORTH CENTRAL ILLINOIS

CITY           SKY/WX    TMP DP  RH WIND       PRES   REMARKS
ROCKFORD       LGT SNOW  31  28  89 E7        30.15R VSB 1   WCI  24
FREEPORT*      LGT SNOW  30  29  97 E7        30.14S WCI  23
ROCHELLE*      LGT SNOW  32  32 100 CALM      30.13S
DE KALB*       LGT SNOW  31  31  99 SE3       30.14R
PERU*          RAIN      33  33  99 S5        30.14S WCI  29
$$

ILZ005-006-012>014-019>023-010500-
NORTHEAST ILLINOIS

CITY           SKY/WX    TMP DP  RH WIND       PRES   REMARKS
CHICAGO-OHARE  LGT SNOW  31  29  92 E7        30.15R VSB 1   WCI  24
CHICAGO-MIDWAY LGT SNOW  33  30  88 E7        30.16R FOG     WCI  27
AURORA         LGT SNOW  33  31  92 SE3       30.14S VSB 3/4
LANSING*       LGT SNOW  32  32 100 CALM      30.16S VSB 1
JOLIET*        MIX PCPN  32  32  99 CALM      30.15F VSB 3/4
WAUKEGAN       LGT SNOW  30  29  96 NE9       30.16S VSB 1   WCI  22
DUPAGE AIRPORT LGT SNOW  33  31  92 E3        30.14R VSB 1
KANKAKEE*      LGT RAIN  33  32  98 S6        30.16F WCI  27
WHEELING       LGT SNOW  31  28  89 NE6       30.17S VSB 1   WCI  25
MORRIS*        RAIN      33  33 100 CALM      30.14F
ROMEOVILLE*    LGT SNOW  32  32 100 CALM      30.15R VSB 1
NORTHERLY ISL    N/A     31  29  92 E6          N/A  WCI  25
$$

LMZ740>746-010500-
SOUTHERN LAKE MICHIGAN

STATION/POSITION SKY/WX   TEMP    WIND        PRES    VSBY  WAVE
                          AIR SEA DIR/SP/G                  HT/PER
                          (F)     (DEG/KT/KT) (MB)    (MI)  (FT/S)
WAUKEGAN HARBOR            30      50/ 12/ 14   N/A
HARRISON CRIB              31      70/  9/ 10   N/A
BURNHAM HARBOR             31      90/  4/  5   N/A
CALUMET HARBOR             32      50/  6/  6   N/A
MICHIGAN CITY              31     350/  4/  5   N/A
$$

ILZ025>027-034>036-040-047-049-050-058-095>099-010500-
WEST-CENTRAL ILLINOIS

CITY           SKY/WX    TMP DP  RH WIND       PRES   REMARKS
QUINCY         LGT SNOW  33  31  92 SE12      30.06F FOG     WCI  24
GALESBURG*     LGT SNOW  32  32 100 SE6       30.10F WCI  27
MACOMB*        LGT SNOW  32  32 100 SE7       30.12F WCI  26
JACKSONVILLE*  LGT RAIN  36  34  92 SE8       30.12F WCI  30
PITTSFIELD*    DRIZZLE   34  33  94 E7        30.09F WCI  28
$$

ILZ028>032-037-038-041>044-048-051>054-059>061-010500-
CENTRAL ILLINOIS

CITY           SKY/WX    TMP DP  RH WIND       PRES   REMARKS
PONTIAC        LGT SNOW  33  33 100 S5        30.16S WCI  29
BLOOMINGTON    LGT SNOW  33  33 100 S10       30.15F FOG     WCI  25
DECATUR        CLOUDY    34  32  92 SE7       30.16F FOG     WCI  28
PEORIA         LGT SNOW  34  32  92 S7        30.14F FOG     WCI  28
LACON*         LGT RAIN  32  32  98 SE3       30.13S
LINCOLN*       RAIN      35  33  94 S5        30.16S WCI  30
SPRINGFIELD    LGT RAIN  35  33  92 S7        30.14F WCI  29
TAYLORVILLE    DRIZZLE   32  32 100 SE5       30.14F WCI  27
$$

ILZ033-039-045-046-055>057-062-063-010500-
EAST-CENTRAL ILLINOIS

CITY           SKY/WX    TMP DP  RH WIND       PRES   REMARKS
CHAMPAIGN      LGT RAIN  33  32  96 S3        30.16F FOG
DANVILLE*      RAIN      32  32 100 S7        30.16S WCI  26
RANTOUL*       LGT SNOW  34  33  97 S6        30.17S WCI  29
MATTOON        CLOUDY    33  31  92 SE5       30.16F WCI  29
PARIS*         RAIN      33  33  99 CALM      30.19F
$$

ILZ079-100>102-010500-
SOUTHWEST ILLINOIS

CITY           SKY/WX    TMP DP  RH WIND       PRES   REMARKS
ALTON          CLOUDY    37  28  69 E7        30.11F WCI  31
BELLEVILLE     CLOUDY    37  29  71 E8        30.11F WCI  31
CAHOKIA*       CLOUDY    39  28  64 SE6       30.11F WCI  35
SPARTA*        CLOUDY    37  28  69 SE3       30.14S
$$

ILZ064>066-069>071-074>076-080>082-084>086-088>090-092>094-010500-
SOUTH-CENTRAL ILLINOIS

CITY           SKY/WX    TMP DP  RH WIND       PRES   REMARKS
CARBONDALE     CLOUDY    38  24  57 SE5       30.14F WCI  34
CAIRO*         CLOUDY    41  30  65 NE3       30.14F
EFFINGHAM*     CLOUDY    35  28  73 E5        30.18F WCI  31
MARION         CLOUDY    39  27  60 CALM      30.15F
MT. VERNON     CLOUDY    37  27  65 E3        30.15F
CENTRALIA*     CLOUDY    37  28  67 E5        30.14S WCI  34
SALEM*         CLOUDY    39  29  67 CALM      30.16F
METROPOLIS*    CLOUDY    43  27  54 CALM      30.15R
$$

ILZ067-068-072-073-078-083-087-091-010500-
SOUTHEAST ILLINOIS

CITY           SKY/WX    TMP DP  RH WIND       PRES   REMARKS
LAWRENCEVILLE  CLOUDY    36  29  75 SE3       30.20S
FLORA*         CLOUDY    36  29  75 E10       30.15F WCI  29
FAIRFIELD*     CLOUDY    38  28  67 E5        30.15F WCI  34
HARRISBURG*    CLOUDY    39  28  64 SE6       30.18R WCI  35
ROBINSON*      CLOUDY    35  32  90 NE6       30.19F WCI  29
CARMI*         CLOUDY    40  31  72 E6        30.16F
$$

ABBREVIATIONS USED IN REMARKS
   TC - TEMPERATURE IN CELSIUS
  WCI - WIND CHILL INDEX
   HX - HEAT INDEX
  VSB - VISIBILITY
$$




USA.gov is the U.S. government's official web portal to all federal, state and local government web resources and services.